Time,TemperatureF,DewpointF,PressureIn,WindDirection,WindDirectionDegrees,WindSpeedMPH,WindSpeedGustMPH,Humidity,HourlyPrecipIn,Conditions,Clouds,dailyrainin,SolarRadiationWatts/m^2,SoftwareType,DateUTC
2013-11-06 00:02:00,32.0,32.0,-100.00,North,358,0.0,2.0,100,0.00,,,0.00,0.000000,,2013-11-06 09:02:00,
2013-11-06 00:11:00,32.0,32.0,-100.00,North,358,0.0,2.0,100,0.00,,,0.00,0.000000,,2013-11-06 09:11:00,
2013-11-06 00:22:00,32.0,32.0,-100.00,North,358,0.0,2.0,100,0.00,,,0.00,0.000000,,2013-11-06 09:22:00,
2013-11-06 00:53:00,32.0,32.0,-100.00,NNW,331,0.0,4.0,100,0.00,,,0.00,0.000000,,2013-11-06 09:53:00,
2013-11-06 01:03:00,32.0,32.0,-100.00,NNW,331,0.0,4.0,100,0.00,,,0.00,0.000000,,2013-11-06 10:03:00,
2013-11-06 01:12:00,32.0,32.0,-100.00,NNW,331,0.0,4.0,100,0.00,,,0.00,0.000000,,2013-11-06 10:12:00,
2013-11-06 01:23:00,32.0,32.0,-100.00,NNW,331,0.0,4.0,100,0.00,,,0.00,0.000000,,2013-11-06 10:23:00,
2013-11-06 01:53:00,32.0,27.0,-100.00,NW,317,3.0,7.0,83,0.01,,,0.01,0.000000,,2013-11-06 10:53:00,
2013-11-06 02:02:00,32.0,27.0,-100.00,NW,317,3.0,7.0,83,0.01,,,0.01,0.000000,,2013-11-06 11:02:00,
2013-11-06 02:12:00,32.0,27.0,-100.00,NW,317,3.0,7.0,83,0.01,,,0.01,0.000000,,2013-11-06 11:12:00,
2013-11-06 02:22:00,32.0,27.0,-100.00,NW,317,3.0,7.0,83,0.01,,,0.01,0.000000,,2013-11-06 11:22:00,
2013-11-06 02:52:00,36.0,34.0,-100.00,NNW,335,3.0,8.0,94,0.01,,,0.02,0.000000,,2013-11-06 11:52:00,
2013-11-06 03:02:00,36.0,34.0,-100.00,NNW,335,3.0,8.0,94,0.01,,,0.02,0.000000,,2013-11-06 12:02:00,
2013-11-06 03:12:00,36.0,34.0,-100.00,NNW,335,3.0,8.0,94,0.01,,,0.02,0.000000,,2013-11-06 12:12:00,
2013-11-06 03:22:00,36.0,34.0,-100.00,NNW,335,3.0,8.0,94,0.01,,,0.02,0.000000,,2013-11-06 12:22:00,
2013-11-06 03:52:00,34.0,30.0,-100.00,North,353,1.0,5.0,87,0.00,,,0.02,0.000000,,2013-11-06 12:52:00,
2013-11-06 04:01:00,34.0,30.0,-100.00,North,353,1.0,5.0,87,0.00,,,0.02,0.000000,,2013-11-06 13:01:00,
2013-11-06 04:12:00,34.0,30.0,-100.00,North,353,1.0,5.0,87,0.00,,,0.02,0.000000,,2013-11-06 13:12:00,
2013-11-06 04:21:00,34.0,30.0,-100.00,North,353,1.0,5.0,87,0.00,,,0.02,0.000000,,2013-11-06 13:21:00,
2013-11-06 04:52:00,36.0,29.0,-100.00,NNW,335,3.0,7.0,77,0.01,,,0.03,0.000000,,2013-11-06 13:52:00,
2013-11-06 05:02:00,36.0,29.0,-100.00,NNW,335,3.0,7.0,77,0.01,,,0.03,0.000000,,2013-11-06 14:02:00,
2013-11-06 05:11:00,36.0,29.0,-100.00,NNW,335,3.0,7.0,77,0.01,,,0.03,0.000000,,2013-11-06 14:11:00,
2013-11-06 05:22:00,36.0,29.0,-100.00,NNW,335,3.0,7.0,77,0.01,,,0.03,0.000000,,2013-11-06 14:22:00,
2013-11-06 05:52:00,34.0,29.0,-100.00,NNW,333,3.0,7.0,83,0.00,,,0.03,0.000000,,2013-11-06 14:52:00,
2013-11-06 06:01:00,34.0,29.0,-100.00,NNW,333,3.0,7.0,83,0.00,,,0.03,0.000000,,2013-11-06 15:01:00,
2013-11-06 06:11:00,34.0,29.0,-100.00,NNW,333,3.0,7.0,83,0.00,,,0.03,0.000000,,2013-11-06 15:11:00,
2013-11-06 06:22:00,34.0,29.0,-100.00,NNW,333,3.0,7.0,83,0.00,,,0.03,0.000000,,2013-11-06 15:22:00,
2013-11-06 06:53:00,36.0,28.0,-100.00,NNW,331,3.0,8.0,75,-99.99,,,0.01,0.000000,,2013-11-06 15:53:00,
2013-11-06 07:03:00,36.0,28.0,-100.00,NNW,331,3.0,8.0,75,-99.99,,,0.01,0.000000,,2013-11-06 16:03:00,
2013-11-06 07:12:00,36.0,28.0,-100.00,NNW,331,3.0,8.0,75,-99.99,,,0.01,0.000000,,2013-11-06 16:12:00,
2013-11-06 07:23:00,36.0,28.0,-100.00,NNW,331,3.0,8.0,75,-99.99,,,0.01,0.000000,,2013-11-06 16:23:00,
2013-11-06 07:53:00,36.0,29.0,-100.00,NW,323,3.0,7.0,78,0.01,,,0.02,0.000000,,2013-11-06 16:53:00,
2013-11-06 08:02:00,36.0,29.0,-100.00,NW,323,3.0,7.0,78,0.01,,,0.02,0.000000,,2013-11-06 17:02:00,
2013-11-06 08:13:00,36.0,29.0,-100.00,NW,323,3.0,7.0,78,0.01,,,0.02,0.000000,,2013-11-06 17:13:00,
2013-11-06 08:22:00,36.0,29.0,-100.00,NW,323,3.0,7.0,78,0.01,,,0.02,0.000000,,2013-11-06 17:22:00,
2013-11-06 08:52:00,36.0,27.0,-100.00,NNW,332,3.0,8.0,72,-99.99,,,0.00,1.000000,,2013-11-06 17:52:00,
2013-11-06 09:01:00,36.0,27.0,-100.00,NNW,332,3.0,8.0,72,-99.99,,,0.00,1.000000,,2013-11-06 18:01:00,
2013-11-06 09:12:00,36.0,27.0,-100.00,NNW,332,3.0,8.0,72,-99.99,,,0.00,1.000000,,2013-11-06 18:12:00,
2013-11-06 09:22:00,36.0,27.0,-100.00,NNW,332,3.0,8.0,72,-99.99,,,0.00,1.000000,,2013-11-06 18:22:00,
2013-11-06 09:52:00,36.0,24.0,-100.00,NW,311,4.0,8.0,63,0.01,,,0.01,21.000000,,2013-11-06 18:52:00,
2013-11-06 10:01:00,36.0,24.0,-100.00,NW,311,4.0,8.0,63,0.01,,,0.01,21.000000,,2013-11-06 19:01:00,
2013-11-06 10:11:00,36.0,24.0,-100.00,NW,311,4.0,8.0,63,0.01,,,0.01,21.000000,,2013-11-06 19:11:00,
2013-11-06 10:21:00,36.0,24.0,-100.00,NW,311,4.0,8.0,63,0.01,,,0.01,21.000000,,2013-11-06 19:21:00,
2013-11-06 10:52:00,36.0,23.0,-100.00,WNW,298,6.0,10.0,61,0.00,,,0.01,57.000000,,2013-11-06 19:52:00,
2013-11-06 11:01:00,36.0,23.0,-100.00,WNW,298,6.0,10.0,61,0.00,,,0.01,57.000000,,2013-11-06 20:01:00,
2013-11-06 11:12:00,36.0,23.0,-100.00,WNW,298,6.0,10.0,61,0.00,,,0.01,57.000000,,2013-11-06 20:12:00,
2013-11-06 11:21:00,36.0,23.0,-100.00,WNW,298,6.0,10.0,61,0.00,,,0.01,57.000000,,2013-11-06 20:21:00,
2013-11-06 11:52:00,36.0,26.0,-100.00,WNW,294,5.0,8.0,68,-99.99,,,-99.99,26.000000,,2013-11-06 20:52:00,
2013-11-06 12:02:00,36.0,26.0,-100.00,WNW,294,5.0,8.0,68,-99.99,,,-99.99,26.000000,,2013-11-06 21:02:00,
2013-11-06 12:11:00,36.0,26.0,-100.00,WNW,294,5.0,8.0,68,-99.99,,,-99.99,26.000000,,2013-11-06 21:11:00,
2013-11-06 12:21:00,36.0,26.0,-100.00,WNW,294,5.0,8.0,68,-99.99,,,-99.99,26.000000,,2013-11-06 21:21:00,
2013-11-06 12:54:00,36.0,26.0,-100.00,NW,306,4.0,7.0,67,0.01,,,0.01,39.000000,,2013-11-06 21:54:00,
2013-11-06 13:04:00,36.0,26.0,-100.00,NW,306,4.0,7.0,67,0.01,,,0.01,39.000000,,2013-11-06 22:04:00,
2013-11-06 13:14:00,36.0,26.0,-100.00,NW,306,4.0,7.0,67,0.01,,,0.01,39.000000,,2013-11-06 22:14:00,
2013-11-06 13:23:00,36.0,26.0,-100.00,NW,306,4.0,7.0,67,0.01,,,0.01,39.000000,,2013-11-06 22:23:00,
2013-11-06 13:53:00,34.0,23.0,-100.00,WNW,301,3.0,7.0,64,-99.99,,,0.00,88.000000,,2013-11-06 22:53:00,
2013-11-06 14:02:00,34.0,23.0,-100.00,WNW,301,3.0,7.0,64,-99.99,,,0.00,88.000000,,2013-11-06 23:02:00,
2013-11-06 14:13:00,34.0,23.0,-100.00,WNW,301,3.0,7.0,64,-99.99,,,0.00,88.000000,,2013-11-06 23:13:00,
2013-11-06 14:22:00,34.0,23.0,-100.00,WNW,301,3.0,7.0,64,-99.99,,,0.00,88.000000,,2013-11-06 23:22:00,
2013-11-06 14:53:00,36.0,25.0,-100.00,NW,318,3.0,7.0,66,0.00,,,0.00,84.000000,,2013-11-06 23:53:00,
2013-11-06 15:02:00,36.0,25.0,-100.00,NW,318,3.0,7.0,66,0.00,,,0.00,84.000000,,2013-11-07 00:02:00,
2013-11-06 15:11:00,36.0,25.0,-100.00,NW,318,3.0,7.0,66,0.00,,,0.00,84.000000,,2013-11-07 00:11:00,
2013-11-06 15:21:00,36.0,25.0,-100.00,NW,318,3.0,7.0,66,0.00,,,0.00,84.000000,,2013-11-07 00:21:00,
2013-11-06 15:52:00,34.0,23.0,-100.00,WNW,303,4.0,6.0,63,0.00,,,0.00,40.000000,,2013-11-07 00:52:00,
2013-11-06 16:01:00,34.0,23.0,-100.00,WNW,303,4.0,6.0,63,0.00,,,0.00,40.000000,,2013-11-07 01:01:00,
2013-11-06 16:11:00,34.0,23.0,-100.00,WNW,303,4.0,6.0,63,0.00,,,0.00,40.000000,,2013-11-07 01:11:00,
2013-11-06 16:21:00,34.0,23.0,-100.00,WNW,303,4.0,6.0,63,0.00,,,0.00,40.000000,,2013-11-07 01:21:00,
2013-11-06 16:52:00,34.0,26.0,-100.00,WNW,301,4.0,8.0,72,0.00,,,-99.99,10.000000,,2013-11-07 01:52:00,
2013-11-06 17:01:00,34.0,26.0,-100.00,WNW,301,4.0,8.0,72,0.00,,,-99.99,10.000000,,2013-11-07 02:01:00,
2013-11-06 17:11:00,34.0,26.0,-100.00,WNW,301,4.0,8.0,72,0.00,,,-99.99,10.000000,,2013-11-07 02:11:00,
2013-11-06 17:21:00,34.0,26.0,-100.00,WNW,301,4.0,8.0,72,0.00,,,-99.99,10.000000,,2013-11-07 02:21:00,
2013-11-06 18:12:00,34.0,25.0,-100.00,NW,321,3.0,7.0,69,0.00,,,-99.99,0.000000,,2013-11-07 03:12:00,
2013-11-06 18:21:00,34.0,25.0,-100.00,NW,321,3.0,7.0,69,0.00,,,-99.99,0.000000,,2013-11-07 03:21:00,
2013-11-06 18:24:00,34.0,25.0,-100.00,NW,316,3.0,8.0,70,0.00,,,-99.99,0.000000,,2013-11-07 03:24:00,
2013-11-06 18:55:00,34.0,25.0,-100.00,NW,316,3.0,8.0,70,0.00,,,-99.99,0.000000,,2013-11-07 03:55:00,
2013-11-06 19:04:00,34.0,25.0,-100.00,NW,316,3.0,8.0,70,0.00,,,-99.99,0.000000,,2013-11-07 04:04:00,
2013-11-06 19:13:00,34.0,25.0,-100.00,NW,316,3.0,8.0,70,0.00,,,-99.99,0.000000,,2013-11-07 04:13:00,
2013-11-06 19:53:00,34.0,24.0,-100.00,NNW,328,3.0,7.0,66,0.00,,,0.00,0.000000,,2013-11-07 04:53:00,
2013-11-06 20:03:00,34.0,24.0,-100.00,NNW,328,3.0,7.0,66,0.00,,,0.00,0.000000,,2013-11-07 05:03:00,
2013-11-06 20:13:00,34.0,24.0,-100.00,NNW,328,3.0,7.0,66,0.00,,,0.00,0.000000,,2013-11-07 05:13:00,
2013-11-06 20:23:00,34.0,24.0,-100.00,NNW,328,3.0,7.0,66,0.00,,,0.00,0.000000,,2013-11-07 05:23:00,
2013-11-06 20:54:00,34.0,26.0,-100.00,NW,308,3.0,7.0,73,0.00,,,0.00,0.000000,,2013-11-07 05:54:00,
2013-11-06 21:03:00,34.0,26.0,-100.00,NW,308,3.0,7.0,73,0.00,,,0.00,0.000000,,2013-11-07 06:03:00,
2013-11-06 21:13:00,34.0,26.0,-100.00,NW,308,3.0,7.0,73,0.00,,,0.00,0.000000,,2013-11-07 06:13:00,
2013-11-06 21:23:00,34.0,26.0,-100.00,NW,308,3.0,7.0,73,0.00,,,0.00,0.000000,,2013-11-07 06:23:00,
2013-11-06 21:52:00,32.0,23.0,-100.00,WNW,302,2.0,6.0,68,0.00,,,0.00,0.000000,,2013-11-07 06:52:00,
2013-11-06 22:02:00,32.0,23.0,-100.00,WNW,302,2.0,6.0,68,0.00,,,0.00,0.000000,,2013-11-07 07:02:00,
2013-11-06 22:11:00,32.0,23.0,-100.00,WNW,302,2.0,6.0,68,0.00,,,0.00,0.000000,,2013-11-07 07:11:00,
2013-11-06 22:21:00,32.0,23.0,-100.00,WNW,302,2.0,6.0,68,0.00,,,0.00,0.000000,,2013-11-07 07:21:00,
2013-11-06 22:52:00,32.0,24.0,-100.00,WNW,292,4.0,7.0,71,0.00,,,0.00,0.000000,,2013-11-07 07:52:00,
2013-11-06 23:02:00,32.0,24.0,-100.00,WNW,292,4.0,7.0,71,0.00,,,0.00,0.000000,,2013-11-07 08:02:00,
2013-11-06 23:11:00,32.0,24.0,-100.00,WNW,292,4.0,7.0,71,0.00,,,0.00,0.000000,,2013-11-07 08:11:00,
2013-11-06 23:21:00,32.0,24.0,-100.00,WNW,292,4.0,7.0,71,0.00,,,0.00,0.000000,,2013-11-07 08:21:00,
2013-11-06 23:53:00,32.0,23.0,-100.00,WNW,290,4.0,8.0,70,0.00,,,0.00,0.000000,,2013-11-07 08:53:00,